User: anonymous   Login
Location: Bremen
(53.0793°N, 8.8017°E)
Time: 21:21:09
(UTC+01:00)
Language:

S-56A Canister/Altair - Orbit

View from above orbital plane
View from above orbital plane
View from above satellite
View from above satellite

Ground track
Ground track

The orbit data is extracted from the following two-line orbital elements,

1 00082U 61004B   21340.40080740 -.00000101  00000-0 -44198-4 0  9998
2 00082  38.8580  10.1501 1174753 154.9703 211.2943 12.26012322873718
Epoch (UTC): 06 December 2021 09:37:09
Eccentricity: 0.1174753
inclination: 38.8580°
perigee height: 633 km
apogee height: 2500 km
right ascension of ascending node: 10.1501°
argument of perigee: 154.9703°
revolutions per day: 12.26012322
mean anomaly at epoch: 211.2943°
orbit number at epoch: 87371

The dashed part of the orbit path shows where the satellite is in the earth's shadow,  

DLR